This demonstration page uses our WeatherBlox Daily Observations layout. Learn more.

Left ArrowRight Arrow

34.02893, -84.19858

Hourly Observations for May 26, 2022

Temp ( °F °C ) Dew Point ( °F °C ) Humidity (%) Winds ( mph kmh ) Pressure ( in mb ) Visibility ( mi km ) Precip ( " mm )
12:37 am 00:37 Cloudy 68 20 65 18.3 90 90 E 6 9 30.08 1019 10 16 0.00 0.00
12:50 am 00:50 Cloudy 68 20 64 18 88 88 VRB 5 7 30.08 1019 10 16 0.00 0.00
12:51 am 00:51 Cloudy 68 20 65 18.3 90 90 VRB 3 6 30.08 1019 10 16 0.00 0.00
1:53 am 01:53 Cloudy 68 20 66 18.9 93 93 VRB 3 6 30.06 1018 10 16 0.00 0.00
2:39 am 02:39 Cloudy 69 20.6 67 19.4 93 93 VRB 5 7 30.05 1018 10 16 0.00 0.00
2:53 am 02:53 Cloudy 69 20.6 67 19.4 93 93 SSE 8 13 30.04 1017 10 16 0.00 0.00
3:04 am 03:04 Cloudy with Light Rain 69 20.6 67 19.4 93 93 S 7 11 30.05 1018 6 10 0.03 0.76
3:20 am 03:20 Cloudy with Heavy Rain 69 20.6 68 20 96 96 VRB 7 11 30.04 1017 2 2 0.24 6.10
3:29 am 03:29 Cloudy with Light Rain 69 20.6 68 20 96 96 S 8 13 30.05 1018 1 2 0.33 8.38
3:35 am 03:35 Cloudy with Rain 69 20.6 68 20 96 96 S 7 11 30.05 1018 3 5 0.36 9.14
3:53 am 03:53 Cloudy with Light Rain 69 20.6 68 20 96 96 SSE 7 11 30.04 1017 5 8 0.38 9.65
4:53 am 04:53 Cloudy with Light Rain 69 20.6 68 20 96 96 SSE 7 11 30.04 1017 8 13 0.02 0.51
5:53 am 05:53 Cloudy with Light Rain 69 20.6 68 20 96 96 S 7 11 30.04 1017 4 6 0.03 0.76
6:53 am 06:53 Cloudy 69 20.6 68 20 96 96 SSE 7 11 30.04 1017 7 11 0.01 0.25
7:02 am 07:02 Mostly Cloudy 69 20.6 68 20 96 96 SSE 6 9 30.05 1018 7 11 0.00 0.00
7:19 am 07:19 Mostly Cloudy with Mist and Fog 69 20.6 68 20 96 96 SSE 6 9 30.05 1018 6 10 0.00 0.00
7:30 am 07:30 Mostly Cloudy 69 20.6 68 20 96 96 SSE 7 11 30.05 1018 7 11 0.00 0.00
7:37 am 07:37 Cloudy 69 20.6 68 20 96 96 S 6 9 30.05 1018 7 11 0.00 0.00
7:49 am 07:49 Cloudy 70 21 68 20 94 94 S 6 9 30.05 1018 7 11 0.00 0.00
7:53 am 07:53 Mostly Cloudy 70 21.1 69 20.6 97 97 SSE 7 11 30.05 1018 7 11 0.00 0.00
8:53 am 08:53 Mostly Cloudy 71 21.7 69 20.6 94 94 S 8 13 30.05 1018 9 14 0.00 0.00
9:53 am 09:53 Cloudy 71 21.7 68 20 90 90 VRB 5 7 30.04 1017 10 16 0.00 0.00
10:00 am 10:00 Mostly Cloudy 71 21.7 68 20 90 90 SE 7 11 30.05 1018 10 16 0.00 0.00
10:26 am 10:26 Cloudy 71 21.7 68 20 90 90 S 6 9 30.05 1018 10 16 0.00 0.00
10:49 am 10:49 Cloudy 73 23 70 21 89 89 SSE 8 13 30.04 1017 10 16 0.00 0.00
10:53 am 10:53 Cloudy 73 22.8 68 20 84 84 SSE 7 11 30.04 1017 10 16 0.00 0.00
11:31 am 11:31 Mostly Cloudy 75 23.9 69 20.6 82 82 SE 7 11 30.04 1017 10 16 0.00 0.00
11:50 am 11:50 Cloudy 73 23 68 20 83 83 SSE 7 11 30.03 1017 10 16 0.00 0.00
11:53 am 11:53 Cloudy 74 23.3 68 20 82 82 VRB 7 11 30.03 1017 10 16 0.00 0.00
12:21 pm 12:21 Mostly Cloudy 75 23.9 68 20 79 79 SSE 12 19 30.02 1017 10 16 0.00 0.00
12:30 pm 12:30 Mostly Cloudy 75 23.9 68 20 79 79 SSE 8 13 30.02 1017 10 16 0.00 0.00
12:43 pm 12:43 Cloudy 75 23.9 68 20 79 79 SSE 10 17 30.02 1017 10 16 0.00 0.00
12:50 pm 12:50 Cloudy 73 23 66 19 78 78 SSE 10 17 30.02 1017 10 16 0.00 0.00
12:53 pm 12:53 Cloudy 74 23.3 68 20 82 82 SSE 8 13 30.02 1017 10 16 0.00 0.00
1:53 pm 13:53 Cloudy 74 23.3 67 19.4 79 79 S 12 19 30.00 1016 10 16 0.00 0.00
2:18 pm 14:18 Cloudy 76 24.4 68 20 77 77 S 8 13 29.98 1015 10 16 0.00 0.00
2:43 pm 14:43 Cloudy with Rain 73 22.8 69 20.6 87 87 S 8 13 29.98 1015 2 3 0.05 1.27
2:53 pm 14:53 Mostly Cloudy with Light Rain 73 22.8 71 21.7 94 94 S 6 9 29.97 1015 3 5 0.08 2.03
3:22 pm 15:22 Cloudy with Rain 72 22.2 69 20.6 91 91 SW 13 20 29.99 1015 2 3 0.05 1.27
3:33 pm 15:33 Cloudy with Light Rain 70 21.1 68 20 93 93 SW 16 26 29.99 1016 3 5 0.10 2.54
3:43 pm 15:43 Cloudy 72 22.2 69 20.6 91 91 SW 12 19 29.98 1015 10 16 0.10 2.54
3:53 pm 15:53 Mostly Cloudy 72 22.2 68 20 87 87 SW 14 22 29.96 1015 10 16 0.10 2.54
4:34 pm 16:34 Mostly Cloudy 73 22.8 67 19.4 81 81 SSW 16 26 29.95 1014 10 16 0.00 0.00
4:53 pm 16:53 Mostly Cloudy 72 22.2 66 18.9 82 82 SSW 14 22 29.95 1014 10 16 0.00 0.00
5:11 pm 17:11 Cloudy with Light Rain 72 22.2 67 19.4 84 84 S 12 19 29.94 1014 10 16 0.00 0.00
5:40 pm 17:40 Mostly Cloudy 72 22.2 67 19.4 84 84 SSW 10 17 29.94 1014 10 16 0.00 0.00
5:53 pm 17:53 Cloudy 72 22.2 67 19.4 84 84 SSW 10 17 29.93 1014 10 16 0.00 0.00
6:04 pm 18:04 Cloudy 72 22.2 67 19.4 84 84 SSW 8 13 29.94 1014 10 16 0.00 0.00
6:24 pm 18:24 Cloudy 72 22.2 66 18.9 82 82 S 9 15 29.94 1014 10 16 0.00 0.00
6:33 pm 18:33 Mostly Cloudy 72 22.2 66 18.9 82 82 S 9 15 29.94 1014 10 16 0.00 0.00
6:53 pm 18:53 Partly Cloudy 72 22.2 66 18.9 82 82 S 5 7 29.93 1014 10 16 0.00 0.00
7:23 pm 19:23 Cloudy 71 21.7 66 18.9 84 84 S 7 11 29.94 1014 10 16 0.00 0.00
7:37 pm 19:37 Cloudy 71 21.7 65 18.3 81 81 S 9 15 29.93 1013 10 16 0.00 0.00
7:53 pm 19:53 Cloudy 71 21.7 65 18.3 81 81 S 9 15 29.92 1013 10 16 0.00 0.00
8:15 pm 20:15 Cloudy 71 21.7 65 18.3 81 81 S 6 9 29.94 1014 10 16 0.00 0.00
8:35 pm 20:35 Cloudy 70 21.1 65 18.3 84 84 S 5 7 29.94 1014 10 16 0.00 0.00
8:53 pm 20:53 Cloudy 70 21.1 65 18.3 84 84 S 10 17 29.93 1014 10 16 0.00 0.00
9:53 pm 21:53 Mostly Cloudy 69 20.6 65 18.3 87 87 S 7 11 29.93 1014 10 16 0.00 0.00
10:53 pm 22:53 Cloudy 69 20.6 66 18.9 90 90 S 6 9 29.93 1014 10 16 0.00 0.00
11:53 pm 23:53 Cloudy 69 20.6 65 18.3 87 87 S 8 13 29.92 1013 10 16 0.00 0.00

Powered by AerisWeather